�������l�o���
Date,Time,MP-1(��Sv/h),MP-2(��Sv/h),MP-3(��Sv/h),MP-4(��Sv/h),MP-5(��Sv/h),MP-6(��Sv/h),MP-7(��Sv/h),MP-8(��Sv/h),����,����(m/s),���J
2022/01/06,00:00,0.583,0.880,0.550,1.080,0.747,0.347,0.612,0.579,���k��,9.9,��
2022/01/06,00:10,0.583,0.879,0.553,1.080,0.750,0.348,0.611,0.580,���k��,9.1,��
2022/01/06,00:20,0.583,0.878,0.553,1.080,0.751,0.350,0.612,0.581,���k��,7.1,��
2022/01/06,00:30,0.581,0.881,0.554,1.080,0.749,0.348,0.611,0.579,���k��,6.7,��
2022/01/06,00:40,0.581,0.882,0.552,1.081,0.748,0.350,0.612,0.579,���k��,6.6,��
2022/01/06,00:50,0.584,0.879,0.553,1.080,0.748,0.350,0.611,0.580,���k��,8.1,��
2022/01/06,01:00,0.581,0.878,0.553,1.079,0.748,0.350,0.614,0.581,��,8.0,��
2022/01/06,01:10,0.583,0.879,0.555,1.081,0.749,0.350,0.611,0.581,��,7.9,��
2022/01/06,01:20,0.581,0.879,0.554,1.078,0.750,0.350,0.611,0.581,���k��,7.1,��
2022/01/06,01:30,0.581,0.878,0.554,1.078,0.748,0.350,0.611,0.580,���k��,7.2,��
2022/01/06,01:40,0.581,0.880,0.552,1.079,0.753,0.349,0.611,0.580,���k��,7.5,��
2022/01/06,01:50,0.582,0.879,0.554,1.079,0.748,0.350,0.610,0.581,���k��,7.7,��
2022/01/06,02:00,0.581,0.879,0.555,1.079,0.750,0.350,0.613,0.579,��,6.8,��
2022/01/06,02:10,0.580,0.879,0.553,1.079,0.749,0.351,0.613,0.581,��,6.7,��
2022/01/06,02:20,0.582,0.880,0.553,1.078,0.747,0.350,0.611,0.579,���k��,7.4,��
2022/01/06,02:30,0.581,0.877,0.553,1.078,0.748,0.351,0.613,0.580,��,6.7,��
2022/01/06,02:40,0.582,0.879,0.553,1.080,0.749,0.350,0.612,0.581,��,6.6,��
2022/01/06,02:50,0.580,0.879,0.553,1.080,0.749,0.349,0.611,0.580,��,6.0,��
2022/01/06,03:00,0.583,0.877,0.553,1.080,0.747,0.349,0.614,0.580,��,6.0,��
2022/01/06,03:10,0.582,0.880,0.555,1.079,0.749,0.349,0.611,0.580,��,5.5,��
2022/01/06,03:20,0.582,0.879,0.553,1.081,0.749,0.350,0.613,0.580,���k��,6.8,��
2022/01/06,03:30,0.581,0.878,0.556,1.082,0.749,0.350,0.611,0.581,��,6.0,��
2022/01/06,03:40,0.581,0.878,0.554,1.082,0.748,0.349,0.612,0.580,���k��,6.9,��
2022/01/06,03:50,0.582,0.881,0.554,1.078,0.748,0.350,0.612,0.580,���k��,7.3,��
2022/01/06,04:00,0.582,0.880,0.554,1.081,0.748,0.349,0.612,0.582,���k��,8.4,��
2022/01/06,04:10,0.582,0.879,0.555,1.079,0.749,0.350,0.611,0.580,���k��,7.1,��
2022/01/06,04:20,0.582,0.878,0.554,1.080,0.750,0.349,0.611,0.580,���k��,6.1,��
2022/01/06,04:30,0.582,0.879,0.554,1.080,0.749,0.350,0.612,0.580,���k��,5.2,��
2022/01/06,04:40,0.580,0.880,0.554,1.081,0.749,0.349,0.611,0.582,�k��,3.6,��
2022/01/06,04:50,0.581,0.878,0.554,1.079,0.748,0.350,0.611,0.580,�k��,3.9,��
2022/01/06,05:00,0.581,0.878,0.552,1.079,0.750,0.349,0.612,0.581,�k��,5.3,��
2022/01/06,05:10,0.584,0.880,0.553,1.081,0.749,0.349,0.612,0.581,�k��,7.1,��
2022/01/06,05:20,0.582,0.878,0.553,1.079,0.748,0.350,0.612,0.581,�k��,7.4,��
2022/01/06,05:30,0.583,0.880,0.553,1.081,0.747,0.349,0.612,0.581,�k��,6.6,��
2022/01/06,05:40,0.582,0.877,0.554,1.076,0.747,0.350,0.613,0.581,�k��,6.3,��
2022/01/06,05:50,0.581,0.877,0.554,1.080,0.748,0.350,0.613,0.581,�k��,7.2,��
2022/01/06,06:00,0.581,0.878,0.555,1.078,0.747,0.351,0.612,0.581,�k��,6.6,��
2022/01/06,06:10,0.582,0.881,0.553,1.080,0.749,0.351,0.613,0.581,�k��,6.3,��
2022/01/06,06:20,0.579,0.879,0.554,1.079,0.747,0.350,0.611,0.580,�k��,6.8,��
2022/01/06,06:30,0.581,0.880,0.553,1.079,0.747,0.350,0.612,0.579,�k��,7.0,��
2022/01/06,06:40,0.581,0.881,0.552,1.080,0.748,0.349,0.611,0.580,�k��,6.3,��
2022/01/06,06:50,0.582,0.880,0.553,1.081,0.748,0.349,0.611,0.580,�k��,6.7,��
2022/01/06,07:00,0.582,0.878,0.553,1.078,0.747,0.349,0.613,0.581,�k��,7.7,��
2022/01/06,07:10,0.583,0.877,0.553,1.078,0.747,0.349,0.612,0.582,�k��,6.6,��
2022/01/06,07:20,0.582,0.879,0.553,1.078,0.748,0.350,0.612,0.581,�k��,6.1,��
2022/01/06,07:30,0.582,0.880,0.553,1.081,0.747,0.350,0.610,0.581,�k��,5.5,��
2022/01/06,07:40,0.582,0.879,0.555,1.080,0.747,0.351,0.612,0.581,���k��,4.9,��
2022/01/06,07:50,0.581,0.878,0.554,1.079,0.747,0.349,0.612,0.582,���k��,5.0,��
2022/01/06,08:00,0.582,0.879,0.552,1.080,0.747,0.350,0.611,0.580,���k��,4.7,��
2022/01/06,08:10,0.582,0.878,0.554,1.081,0.748,0.350,0.612,0.579,���k��,4.1,��
2022/01/06,08:20,0.583,0.879,0.554,1.080,0.749,0.350,0.610,0.581,���k��,3.1,��
2022/01/06,08:30,0.582,0.880,0.554,1.080,0.748,0.349,0.610,0.581,���k��,3.8,��
2022/01/06,08:40,0.583,0.878,0.554,1.080,0.749,0.350,0.613,0.579,���k��,4.1,��
2022/01/06,08:50,0.583,0.878,0.554,1.079,0.747,0.350,0.612,0.581,�k��,4.3,��
2022/01/06,09:00,0.582,0.878,0.555,1.080,0.748,0.350,0.613,0.581,���k��,4.1,��
2022/01/06,09:10,0.583,0.875,0.554,1.078,0.747,0.350,0.613,0.581,�k��,2.6,��
2022/01/06,09:20,0.583,0.877,0.554,1.081,0.746,0.351,0.612,0.581,�k��,3.0,��
2022/01/06,09:30,0.585,0.878,0.556,1.081,0.747,0.349,0.614,0.581,�k�k��,2.6,��
2022/01/06,09:40,0.583,0.878,0.555,1.081,0.748,0.351,0.611,0.581,�k�k��,2.3,��
2022/01/06,09:50,0.584,0.878,0.555,1.080,0.747,0.349,0.614,0.580,�k�k��,1.9,��
2022/01/06,10:00,0.584,0.880,0.554,1.082,0.748,0.351,0.613,0.582,�k�k��,2.0,��
2022/01/06,10:10,0.585,0.879,0.555,1.081,0.747,0.350,0.613,0.581,�k,1.4,��
2022/01/06,10:20,0.582,0.880,0.555,1.081,0.746,0.351,0.611,0.580,�k,2.0,��
2022/01/06,10:30,0.582,0.878,0.555,1.080,0.748,0.351,0.613,0.581,�k��,2.3,��
2022/01/06,10:40,0.584,0.878,0.556,1.079,0.746,0.352,0.613,0.580,�k�k��,2.6,��
2022/01/06,10:50,0.583,0.878,0.557,1.080,0.747,0.351,0.612,0.581,���k��,2.3,��
2022/01/06,11:00,0.586,0.876,0.554,1.080,0.750,0.349,0.612,0.583,�k�k��,2.2,��
2022/01/06,11:10,0.583,0.876,0.556,1.080,0.748,0.350,0.612,0.580,�k��,1.7,��
2022/01/06,11:20,0.583,0.876,0.556,1.081,0.750,0.351,0.612,0.582,���k��,2.6,��
2022/01/06,11:30,0.584,0.877,0.557,1.081,0.749,0.352,0.614,0.582,���k��,2.9,��
2022/01/06,11:40,0.586,0.878,0.557,1.081,0.748,0.352,0.613,0.580,���k��,2.9,��
2022/01/06,11:50,0.585,0.878,0.557,1.081,0.749,0.349,0.614,0.582,���k��,3.4,��
2022/01/06,12:00,0.585,0.877,0.556,1.081,0.750,0.352,0.615,0.582,�k��,2.8,��
2022/01/06,12:10,0.586,0.878,0.556,1.079,0.751,0.353,0.615,0.581,��,3.2,��
2022/01/06,12:20,0.586,0.879,0.557,1.081,0.751,0.351,0.616,0.580,���k��,2.5,��
2022/01/06,12:30,0.586,0.881,0.555,1.082,0.751,0.352,0.614,0.582,��,2.6,��
2022/01/06,12:40,0.585,0.877,0.557,1.081,0.750,0.352,0.614,0.582,��,3.1,��
2022/01/06,12:50,0.586,0.880,0.557,1.080,0.751,0.350,0.614,0.583,���k��,2.0,��
2022/01/06,13:00,0.585,0.879,0.556,1.081,0.749,0.352,0.615,0.582,��,2.3,��
2022/01/06,13:10,0.586,0.881,0.559,1.080,0.748,0.351,0.617,0.580,��,1.7,��
2022/01/06,13:20,0.586,0.881,0.558,1.082,0.751,0.352,0.615,0.581,�k�k��,2.3,��
2022/01/06,13:30,0.585,0.880,0.557,1.081,0.751,0.351,0.615,0.582,���k��,1.7,��
2022/01/06,13:40,0.586,0.882,0.554,1.080,0.751,0.351,0.615,0.582,�k�k��,2.0,��
2022/01/06,13:50,0.586,0.882,0.558,1.082,0.751,0.351,0.613,0.582,�k��,2.0,��
2022/01/06,14:00,0.586,0.880,0.557,1.082,0.751,0.352,0.616,0.582,�k�k��,2.6,��
2022/01/06,14:10,0.587,0.879,0.557,1.081,0.750,0.352,0.613,0.583,�k��,2.0,��
2022/01/06,14:20,0.586,0.882,0.555,1.079,0.749,0.354,0.615,0.582,�k��,2.3,��
2022/01/06,14:30,0.586,0.882,0.558,1.083,0.750,0.350,0.614,0.582,�k�k��,2.0,��
2022/01/06,14:40,0.586,0.884,0.560,1.083,0.752,0.352,0.616,0.582,�k��,1.2,��
2022/01/06,14:50,0.586,0.881,0.556,1.082,0.752,0.353,0.613,0.583,���k��,1.9,��
2022/01/06,15:00,0.587,0.882,0.556,1.083,0.752,0.351,0.616,0.582,�k,2.2,��
2022/01/06,15:10,0.586,0.883,0.557,1.081,0.752,0.352,0.613,0.582,�k,1.9,��
2022/01/06,15:20,0.587,0.881,0.557,1.080,0.753,0.352,0.614,0.582,�k,1.9,��
2022/01/06,15:30,0.588,0.883,0.557,1.082,0.751,0.351,0.615,0.584,�k,1.5,��
2022/01/06,15:40,0.585,0.882,0.558,1.081,0.752,0.352,0.614,0.582,�k,1.5,��
2022/01/06,15:50,0.586,0.882,0.556,1.083,0.752,0.351,0.614,0.582,�k,1.9,��
2022/01/06,16:00,0.585,0.882,0.557,1.080,0.752,0.352,0.615,0.582,�k,1.7,��
2022/01/06,16:10,0.584,0.882,0.557,1.082,0.750,0.352,0.612,0.582,�k,1.9,��
2022/01/06,16:20,0.585,0.881,0.557,1.084,0.750,0.351,0.614,0.583,�k,1.7,��
2022/01/06,16:30,0.584,0.881,0.556,1.083,0.753,0.351,0.613,0.583,�k,1.5,��
2022/01/06,16:40,0.586,0.881,0.556,1.082,0.751,0.352,0.612,0.582,�k�k��,1.9,��
2022/01/06,16:50,0.583,0.883,0.557,1.083,0.750,0.352,0.615,0.582,�k�k��,1.7,��
2022/01/06,17:00,0.584,0.881,0.556,1.082,0.752,0.351,0.614,0.581,�k�k��,1.5,��
2022/01/06,17:10,0.586,0.881,0.558,1.082,0.750,0.351,0.614,0.579,�k�k��,2.3,��
2022/01/06,17:20,0.586,0.881,0.557,1.081,0.752,0.351,0.614,0.583,�k�k��,3.0,��
2022/01/06,17:30,0.583,0.882,0.557,1.081,0.751,0.351,0.613,0.582,�k�k��,3.0,��
2022/01/06,17:40,0.584,0.881,0.556,1.081,0.751,0.351,0.614,0.580,�k�k��,3.4,��
2022/01/06,17:50,0.584,0.882,0.557,1.079,0.749,0.353,0.614,0.581,�k��,3.4,��
2022/01/06,18:00,0.585,0.882,0.556,1.081,0.752,0.352,0.611,0.582,�k��,3.2,��
2022/01/06,18:10,0.584,0.882,0.555,1.083,0.751,0.353,0.614,0.582,�k�k��,3.4,��
2022/01/06,18:20,0.584,0.879,0.557,1.082,0.752,0.351,0.613,0.581,�k�k��,2.3,��
2022/01/06,18:30,0.584,0.880,0.557,1.082,0.753,0.351,0.612,0.581,�k�k��,3.7,��
2022/01/06,18:40,0.584,0.881,0.557,1.081,0.752,0.351,0.616,0.583,�k��,2.8,��
2022/01/06,18:50,0.585,0.884,0.556,1.082,0.752,0.352,0.615,0.582,�k��,3.4,��
2022/01/06,19:00,0.585,0.883,0.556,1.081,0.750,0.352,0.612,0.582,�k��,3.0,��
2022/01/06,19:10,0.584,0.881,0.557,1.082,0.750,0.352,0.613,0.582,�k��,2.2,��
2022/01/06,19:20,0.583,0.881,0.556,1.084,0.751,0.352,0.613,0.582,�k��,2.0,��
2022/01/06,19:30,0.585,0.882,0.554,1.083,0.753,0.353,0.614,0.581,�k��,3.2,��
2022/01/06,19:40,0.585,0.882,0.556,1.081,0.751,0.352,0.614,0.581,�k��,2.9,��
2022/01/06,19:50,0.584,0.881,0.557,1.084,0.753,0.351,0.614,0.581,�k��,3.9,��
2022/01/06,20:00,0.585,0.882,0.557,1.081,0.753,0.352,0.612,0.580,�k��,4.0,��
2022/01/06,20:10,0.584,0.884,0.555,1.083,0.750,0.352,0.613,0.581,�k��,4.0,��
2022/01/06,20:20,0.584,0.882,0.557,1.084,0.752,0.352,0.613,0.582,�k��,3.2,��
2022/01/06,20:30,0.585,0.881,0.556,1.083,0.752,0.352,0.615,0.581,�k��,3.4,��
2022/01/06,20:40,0.584,0.882,0.555,1.082,0.753,0.352,0.613,0.581,�k��,3.8,��
2022/01/06,20:50,0.585,0.883,0.556,1.080,0.753,0.352,0.612,0.582,�k��,3.9,��
2022/01/06,21:00,0.585,0.882,0.557,1.083,0.752,0.352,0.613,0.581,�k��,4.2,��
2022/01/06,21:10,0.584,0.883,0.555,1.082,0.750,0.353,0.612,0.582,�k��,3.9,��
2022/01/06,21:20,0.584,0.882,0.556,1.081,0.751,0.352,0.614,0.581,�k��,3.8,��
2022/01/06,21:30,0.583,0.881,0.555,1.083,0.752,0.353,0.613,0.581,�k��,3.4,��
2022/01/06,21:40,0.584,0.880,0.557,1.083,0.751,0.352,0.612,0.582,�k��,3.0,��
2022/01/06,21:50,0.582,0.881,0.556,1.083,0.753,0.352,0.612,0.581,�k��,2.6,��
2022/01/06,22:00,0.584,0.881,0.556,1.080,0.752,0.351,0.613,0.583,�k��,3.0,��
2022/01/06,22:10,0.583,0.883,0.557,1.083,0.751,0.352,0.613,0.581,���k��,2.8,��
2022/01/06,22:20,0.584,0.881,0.557,1.082,0.750,0.351,0.612,0.581,���k��,2.6,��
2022/01/06,22:30,0.582,0.883,0.556,1.084,0.750,0.351,0.613,0.582,�k��,2.2,��
2022/01/06,22:40,0.585,0.881,0.556,1.083,0.752,0.352,0.613,0.581,�k��,3.0,��
2022/01/06,22:50,0.584,0.883,0.555,1.080,0.751,0.350,0.614,0.582,���k��,3.9,��
2022/01/06,23:00,0.585,0.882,0.556,1.083,0.752,0.351,0.615,0.582,���k��,3.4,��
2022/01/06,23:10,0.583,0.883,0.557,1.082,0.751,0.351,0.613,0.583,���k��,3.4,��
2022/01/06,23:20,0.584,0.882,0.554,1.082,0.752,0.352,0.612,0.581,�k��,3.2,��
2022/01/06,23:30,0.582,0.881,0.556,1.081,0.750,0.352,0.614,0.581,�k��,3.5,��
2022/01/06,23:40,0.583,0.880,0.555,1.084,0.752,0.351,0.611,0.581,�k��,3.2,��
2022/01/06,23:50,0.585,0.882,0.553,1.083,0.750,0.352,0.612,0.582,�k��,3.0,��
